This demonstration page uses our WeatherBlox Daily Observations layout. Learn more.

Left ArrowRight Arrow

47.50024, -111.30081

Hourly Observations for January 9, 2022

Temp ( °F °C ) Dew Point ( °F °C ) Humidity (%) Winds ( mph kmh ) Pressure ( in mb ) Visibility ( mi km ) Precip ( " mm )
12:53 am 00:53 Clear 20 -6.7 10 -12.2 65 65 SW 13 20 30.37 1029 10 16 0.00 0.00
1:53 am 01:53 Clear 26 -3.3 12 -11.1 55 55 SW 25 41 30.35 1028 10 16 0.00 0.00
2:53 am 02:53 Clear 26 -3.3 12 -11.1 55 55 SW 25 41 30.35 1028 10 16 0.00 0.00
3:53 am 03:53 Clear 27 -2.8 12 -11.1 53 53 SW 22 35 30.34 1028 10 16 0.00 0.00
4:53 am 04:53 Clear 28 -2.2 12 -11.1 51 51 SW 26 43 30.37 1029 10 16 0.00 0.00
5:53 am 05:53 Clear 27 -2.8 13 -10.6 55 55 SW 22 35 30.41 1030 10 16 0.00 0.00
6:53 am 06:53 Clear 26 -3.3 13 -10.6 57 57 SW 18 30 30.44 1031 10 16 0.00 0.00
7:53 am 07:53 Clear 28 -2.2 14 -10 56 56 WSW 18 30 30.44 1031 10 16 0.00 0.00
8:53 am 08:53 Sunny 28 -2.2 15 -9.4 58 58 SW 20 31 30.45 1031 10 16 0.00 0.00
9:53 am 09:53 Sunny 31 -0.6 16 -8.9 54 54 SW 21 33 30.48 1032 10 16 0.00 0.00
10:53 am 10:53 Sunny 34 1.1 19 -7.2 54 54 SW 20 31 30.48 1032 10 16 0.00 0.00
11:53 am 11:53 Sunny 35 1.7 20 -6.7 54 54 SW 21 33 30.47 1032 10 16 0.00 0.00
12:53 pm 12:53 Sunny 36 2.2 19 -7.2 50 50 SW 25 41 30.45 1031 10 16 0.00 0.00
1:53 pm 13:53 Sunny 38 3.3 20 -6.7 48 48 SW 22 35 30.44 1031 10 16 0.00 0.00
2:53 pm 14:53 Sunny 37 2.8 21 -6.1 52 52 SW 16 26 30.44 1031 10 16 0.00 0.00
3:53 pm 15:53 Sunny 37 2.8 20 -6.7 50 50 SW 18 30 30.45 1031 10 16 0.00 0.00
4:53 pm 16:53 Sunny 35 1.7 19 -7.2 52 52 SW 22 35 30.46 1032 10 16 0.00 0.00
5:53 pm 17:53 Clear 34 1.1 18 -7.8 52 52 SSW 20 31 30.48 1032 10 16 0.00 0.00
6:53 pm 18:53 Clear 34 1.1 18 -7.8 52 52 SW 20 31 30.50 1033 10 16 0.00 0.00
7:53 pm 19:53 Clear 34 1.1 17 -8.3 50 50 SW 18 30 30.50 1033 10 16 0.00 0.00
8:53 pm 20:53 Clear 33 0.6 17 -8.3 52 52 SSW 20 31 30.51 1033 10 16 0.00 0.00
9:53 pm 21:53 Clear 33 0.6 17 -8.3 52 52 SW 15 24 30.50 1033 10 16 0.00 0.00
10:53 pm 22:53 Clear 33 0.6 16 -8.9 49 49 SW 16 26 30.48 1032 10 16 0.00 0.00
11:53 pm 23:53 Clear 32 0 16 -8.9 52 52 SSW 17 28 30.47 1032 10 16 0.00 0.00

Powered by AerisWeather